[[{"header":{"parameterUnit":"m.s-1","parameterCategory":1,"la1":30.2991,"la2":30.254,"lo1":-89.0895,"lo2":-89.0444,"dy":0.0017,"dx":0.0017,"nx":28,"ny":28,"refTime":"2025-02-28T03:00:00:Z","depth":0,"parameterNumber":2,"parameterNumberName":"U-component_of_WINDS"},"data":[0,0,0,0,0,0,0,0,0,0,0,0,0,0,0,0,0,0,0,0,0,0,0,0,0,0,0,0,0,0,0,0,0,0,0,0,0,0,0,0,0,0,0,0,0,0,0,0,0,0,0,0,0,0,0,0,0,0,1.1416,1.1416,0,1.146,1.1461,1.1461,1.1444,1.1443,1.1442,1.1441,1.1488,1.149,1.1492,0,0,0,0,0,0,0,0,0,0,0,0,0,1.1318,1.132,1.1415,1.1416,1.1417,1.146,1.1461,1.1461,1.1444,1.1443,1.1442,1.144,1.1487,1.149,1.1492,0,0,0,0,0,0,0,0,0,0,0,0,0,1.1361,1.132,1.1415,1.1413,1.1414,1.146,1.1461,1.1461,1.1444,1.1443,1.1441,1.144,1.1486,1.1489,1.1493,1.1544,0,0,1.1503,1.1504,0,0,0,0,0,0,0,0,1.1359,1.1365,1.1413,1.1413,1.1414,1.1445,1.1443,1.1489,1.1445,1.1433,1.1441,1.1439,1.1475,1.1479,1.1491,1.1546,1.1548,1.1503,1.1505,1.1507,1.1507,0,0,0,0,0,0,0,1.1356,1.1363,1.1433,1.1414,1.1414,1.1411,1.1415,1.1452,1.1462,1.1434,1.1432,1.1438,1.1475,1.1488,1.1492,1.1549,1.1503,1.1506,1.1508,1.1509,1.1651,1.1653,0,0,0,0,0,0,1.1352,1.136,1.1432,1.1434,1.1382,1.1414,1.1419,1.1436,1.1461,1.1464,1.1439,1.1437,1.1483,1.1488,1.1493,1.1556,1.1507,1.151,1.1512,1.1649,1.1651,1.1653,0,0,0,0,0,0,1.135,1.1359,1.143,1.1397,1.1406,1.1417,1.1437,1.1438,1.1451,1.1466,1.1468,1.145,1.1482,1.1489,1.1532,1.1557,1.1511,1.1514,1.1647,1.165,1.1652,1.1682,0,0,0,0,0,0,1.1348,1.1358,1.1377,1.1398,1.1408,1.1467,1.1439,1.144,1.1457,1.1454,1.1477,1.1479,1.1481,1.1527,1.1535,1.1561,1.1517,1.1645,1.1648,1.1651,1.1678,1.1685,1.1691,0,0,0,0,0,1.1344,1.1384,1.1378,1.1387,1.1432,1.1469,1.1474,1.1476,1.1459,1.1478,1.1488,1.1478,1.1553,1.1532,1.1541,1.1568,1.1643,1.1647,1.1651,1.1676,1.1684,1.169,0,0,0,0,0,0,1.1366,1.1386,1.138,1.1428,1.1447,1.1466,1.149,1.1484,1.1508,1.1505,1.1506,1.1511,1.1556,1.1566,1.1542,1.162,1.1596,1.1602,1.1611,1.1619,1.1625,1.1622,1.1519,0,0,0,0,0,1.1376,1.1404,1.142,1.146,1.147,1.1479,1.1495,1.1494,1.1514,1.1522,1.1535,1.1555,1.1583,1.1602,1.1629,1.168,1.1685,1.1704,1.171,1.1715,1.172,1.1749,1.1758,1.1666,1.1666,1.1666,0,0,1.1398,1.1412,1.143,1.1465,1.148,1.1509,1.1485,1.1517,1.154,1.1527,1.1569,1.1579,1.1602,1.165,1.1671,1.166,1.1746,1.172,1.1723,1.1726,1.1754,1.1763,1.177,1.1669,1.1669,1.1668,0,0,1.1452,1.1465,1.15,1.1516,1.1538,1.1544,1.1553,1.1573,1.158,1.1621,1.1613,1.164,1.1688,1.1705,1.172,1.1783,1.1775,1.1792,1.1823,1.1852,1.1859,1.1865,1.1888,1.1897,1.1797,1.1797,1.1797,0,1.1475,1.1519,1.152,1.1553,1.1569,1.1559,1.1596,1.1611,1.1641,1.1653,1.164,1.1701,1.1716,1.1768,1.1784,1.1796,1.1806,1.1789,1.1858,1.1864,1.187,1.1892,1.1901,1.1799,1.1799,1.1798,1.1798,0,1.1548,1.1578,1.1604,1.1634,1.1653,1.1688,1.1695,1.1715,1.1713,1.172,1.1764,1.1781,1.1812,1.1825,1.1823,1.1877,1.187,1.1857,1.1833,1.1881,1.1902,1.191,1.1801,1.1801,1.18,1.18,0,0,1.1615,1.1646,1.1656,1.1669,1.1694,1.1718,1.1753,1.1783,1.1801,1.1823,1.1852,1.1894,1.1883,1.19,1.1901,1.1926,1.1976,1.1911,1.1911,1.1923,1.2038,1.2047,1.2057,1.1971,1.1973,1.1974,1.2036,0,1.1672,1.1732,1.1735,1.179,1.1819,1.1811,1.1842,1.1861,1.187,1.1896,1.1906,1.1936,1.1919,1.1929,1.1954,1.1965,1.1999,1.196,1.2,1.2001,1.1994,1.2068,1.2077,1.2135,1.2044,1.2046,1.2047,0,1.1745,1.1769,1.1828,1.185,1.1862,1.189,1.1918,1.1943,1.1966,1.197,1.199,1.1988,1.2025,1.1999,1.2051,1.2025,1.2041,1.2049,1.2052,1.2055,1.2027,1.2074,1.2153,1.2162,1.2059,1.2058,1.2057,0,1.1789,1.1837,1.1878,1.189,1.1917,1.1937,1.1949,1.197,1.1988,1.2013,1.2026,1.2055,1.2071,1.2094,1.21,1.2081,1.2152,1.2127,1.2158,1.2158,1.2173,1.2172,1.2256,1.2183,1.2183,1.2183,1.2183,0,1.1852,1.1888,1.1899,1.1924,1.1965,1.1968,1.2009,1.202,1.2039,1.2067,1.2062,1.2089,1.2095,1.2124,1.2129,1.2172,1.2179,1.2184,1.2185,1.2185,1.2184,1.2195,1.2191,1.2185,1.2185,1.2184,1.2184,0,1.1908,1.1916,1.1961,1.1983,1.199,1.2019,1.2038,1.2063,1.2072,1.2108,1.2116,1.213,1.2163,1.2172,1.2211,1.2215,1.2265,1.2262,1.2258,1.2258,1.2288,1.2285,1.2382,1.2396,1.2314,1.2315,1.2316,0,1.1947,1.1975,1.2001,1.2019,1.2032,1.2062,1.2081,1.2086,1.2106,1.2135,1.2157,1.2189,1.2216,1.227,1.2283,1.2314,1.2312,1.2344,1.2317,1.2316,1.2313,1.2311,1.2315,1.2349,1.235,1.2351,1.2352,0,1.2017,1.202,1.2047,1.2076,1.2099,1.2122,1.2145,1.216,1.2168,1.2192,1.2225,1.2246,1.2287,1.232,1.2352,1.2365,1.236,1.236,1.2369,1.2369,1.2365,1.2368,1.2272,1.2358,1.2357,1.2357,1.2356,1.2356,1.2066,1.209,1.2113,1.2143,1.2161,1.2182,1.2207,1.2219,1.2248,1.2281,1.2283,1.232,1.2343,1.2385,1.24,1.243,1.2421,1.2433,1.2436,1.2439,1.2442,1.236,1.2436,1.2436,1.2436,1.2436,1.2435,0,1.2135,1.2149,1.2178,1.2209,1.2234,1.2227,1.2252,1.2273,1.2306,1.2328,1.2354,1.2394,1.2427,1.2444,1.2476,1.2497,1.2496,1.2505,1.2504,1.2507,1.2449,1.2438,1.2506,1.2506,1.2506,1.2506,1.2506,1.2506,1.2174,1.2216,1.2222,1.2273,1.2287,1.2323,1.2338,1.2358,1.2376,1.2421,1.2448,1.2458,1.2479,1.2513,1.2543,1.2547,1.256,1.2571,1.2574,1.2518,1.2511,1.2504,1.2494,1.2573,1.2573,1.263,1.263,1.2631]},{"header":{"parameterUnit":"m.s-1","parameterCategory":1,"la1":30.2991,"la2":30.254,"lo1":-89.0895,"lo2":-89.0444,"dy":0.0017,"dx":0.0017,"nx":28,"ny":28,"refTime":"2025-02-28T03:00:00:Z","depth":0,"parameterNumber":3,"parameterNumberName":"V-component_of_WINDS"},"data":[0,0,0,0,0,0,0,0,0,0,0,0,0,0,0,0,0,0,0,0,0,0,0,0,0,0,0,0,0,0,0,0,0,0,0,0,0,0,0,0,0,0,0,0,0,0,0,0,0,0,0,0,0,0,0,0,0,0,-1.0014,-1.0014,0,-0.9978,-0.9978,-0.9978,-0.9948,-0.9948,-0.9948,-0.9948,-0.9909,-0.9909,-0.9908,0,0,0,0,0,0,0,0,0,0,0,0,0,-1.0056,-1.0055,-1.0014,-1.0014,-1.0013,-0.9978,-0.9978,-0.9977,-0.9948,-0.9948,-0.9948,-0.9947,-0.991,-0.9909,-0.9908,0,0,0,0,0,0,0,0,0,0,0,0,0,-1.0031,-1.0055,-1.0014,-0.9995,-0.9992,-0.9979,-0.9978,-0.9977,-0.9949,-0.9948,-0.9948,-0.9947,-0.991,-0.9909,-0.9908,-0.991,0,0,-0.9904,-0.9904,0,0,0,0,0,0,0,0,-1.0032,-1.0029,-0.9998,-0.9996,-0.9994,-0.9967,-0.9979,-0.9955,-0.9949,-0.9965,-0.9948,-0.9947,-0.9929,-0.9926,-0.9921,-0.9908,-0.9907,-0.9904,-0.9904,-0.9903,-0.9903,0,0,0,0,0,0,0,-1.0034,-1.0031,-1.0,-0.9997,-0.9995,-0.9987,-0.9983,-0.9974,-0.995,-0.9964,-0.9962,-0.9958,-0.9928,-0.9922,-0.9919,-0.9906,-0.9904,-0.9903,-0.9903,-0.9902,-0.9893,-0.9894,0,0,0,0,0,0,-1.0039,-1.0032,-1.0001,-0.9999,-1.0012,-0.9987,-0.9982,-0.9976,-0.995,-0.9946,-0.9958,-0.9957,-0.9924,-0.9921,-0.9918,-0.9918,-0.9903,-0.9902,-0.9902,-0.9893,-0.9893,-0.9894,0,0,0,0,0,0,-1.004,-1.0036,-1.0002,-1.0015,-1.001,-0.9987,-0.998,-0.9976,-0.997,-0.9946,-0.9941,-0.9957,-0.9923,-0.992,-0.9912,-0.9917,-0.9902,-0.9901,-0.9892,-0.9893,-0.9894,-0.9919,0,0,0,0,0,0,-1.0041,-1.0037,-1.0038,-1.0015,-1.0009,-0.9998,-0.998,-0.9975,-0.9968,-0.9966,-0.9943,-0.9939,-0.9923,-0.9914,-0.9911,-0.9915,-0.99,-0.9892,-0.9893,-0.9893,-0.9918,-0.9921,-0.9923,0,0,0,0,0,-1.0043,-1.0046,-1.0038,-1.0034,-1.001,-0.9998,-0.9995,-0.9976,-0.9969,-0.9969,-0.9954,-0.994,-0.9917,-0.9914,-0.991,-0.9913,-0.9891,-0.9892,-0.9893,-0.9917,-0.992,-0.9923,0,0,0,0,0,0,-1.0069,-1.0043,-1.0033,-1.0029,-1.0016,-0.9993,-0.9993,-0.9981,-0.9969,-0.9967,-0.9944,-0.994,-0.9935,-0.9923,-0.992,-0.9914,-0.9902,-0.9903,-0.9921,-0.9924,-0.9927,-0.9929,-0.9899,0,0,0,0,0,-1.0075,-1.0067,-1.0045,-1.0043,-1.0037,-1.0017,-1.0011,-0.9998,-0.9983,-0.9977,-0.9961,-0.9947,-0.9936,-0.993,-0.9919,-0.9917,-0.9911,-0.9917,-0.992,-0.9922,-0.9922,-0.992,-0.9922,-0.9897,-0.9897,-0.9897,0,0,-1.0085,-1.007,-1.0067,-1.0048,-1.0037,-1.0029,-1.0012,-1.0005,-0.9999,-0.9976,-0.9968,-0.9956,-0.9938,-0.9934,-0.9931,-0.9924,-0.9928,-0.9923,-0.9925,-0.9924,-0.9921,-0.9924,-0.9926,-0.9898,-0.9898,-0.9897,0,0,-1.0101,-1.0089,-1.0087,-1.0076,-1.0058,-1.0045,-1.0044,-1.0023,-1.0014,-1.0006,-0.9989,-0.9981,-0.9964,-0.9952,-0.9944,-0.9957,-0.9943,-0.9954,-0.9967,-0.9965,-0.9967,-0.9968,-0.9972,-0.9974,-0.9954,-0.9954,-0.9954,0,-1.0117,-1.0105,-1.0087,-1.0081,-1.0073,-1.0053,-1.005,-1.004,-1.002,-1.0015,-1.0008,-0.9986,-0.9973,-0.9965,-0.9968,-0.9962,-0.996,-0.9956,-0.9968,-0.9969,-0.9971,-0.9974,-0.9976,-0.9956,-0.9955,-0.9955,-0.9955,0,-1.0125,-1.0118,-1.0118,-1.0099,-1.0092,-1.0087,-1.0068,-1.0062,-1.0051,-1.0037,-1.0029,-1.0013,-0.9998,-0.9996,-0.9984,-0.9986,-0.9983,-0.9972,-0.996,-0.9975,-0.9977,-0.9979,-0.9958,-0.9957,-0.9957,-0.9956,0,0,-1.0155,-1.0128,-1.0128,-1.0119,-1.0099,-1.0093,-1.0088,-1.0074,-1.0069,-1.0056,-1.0051,-1.0037,-1.0028,-1.0018,-1.0005,-1.0004,-1.0014,-0.9993,-0.9993,-0.9997,-1.0015,-1.0022,-1.0024,-1.0005,-1.0005,-1.0006,-1.0016,0,-1.0167,-1.0157,-1.0141,-1.0136,-1.0128,-1.0109,-1.0104,-1.0091,-1.0079,-1.0071,-1.0057,-1.0048,-1.0036,-1.003,-1.0028,-1.0013,-1.0017,-1.0012,-0.9999,-0.9999,-1.0003,-1.0025,-1.0033,-1.0043,-1.0017,-1.0017,-1.0017,0,-1.018,-1.0169,-1.0163,-1.0143,-1.014,-1.0136,-1.0122,-1.0115,-1.0099,-1.0091,-1.0081,-1.0067,-1.006,-1.0049,-1.0039,-1.0037,-1.003,-1.0022,-1.0022,-1.002,-1.0008,-1.0022,-1.0046,-1.0047,-1.0019,-1.0019,-1.0018,0,-1.0202,-1.0185,-1.0179,-1.0173,-1.015,-1.0148,-1.0138,-1.0123,-1.0116,-1.0104,-1.0099,-1.0086,-1.0079,-1.0069,-1.0052,-1.0046,-1.0043,-1.0032,-1.0035,-1.0036,-1.0035,-1.0035,-1.0057,-1.0032,-1.0032,-1.0032,-1.0032,0,-1.0216,-1.0213,-1.0189,-1.0185,-1.0182,-1.0163,-1.016,-1.0148,-1.0135,-1.0128,-1.0111,-1.0105,-1.0083,-1.0075,-1.0061,-1.0055,-1.0052,-1.0044,-1.004,-1.0045,-1.0046,-1.004,-1.0038,-1.0033,-1.0033,-1.0033,-1.0033,0,-1.0239,-1.0223,-1.0216,-1.0195,-1.019,-1.0188,-1.017,-1.0166,-1.0153,-1.0145,-1.0142,-1.0122,-1.0111,-1.0094,-1.0078,-1.0068,-1.0064,-1.0058,-1.0069,-1.0067,-1.0071,-1.0071,-1.0089,-1.0091,-1.0067,-1.0067,-1.0067,0,-1.0249,-1.0247,-1.0226,-1.0221,-1.0212,-1.0204,-1.0197,-1.0179,-1.0172,-1.0155,-1.0152,-1.014,-1.013,-1.0114,-1.0097,-1.0085,-1.0078,-1.0086,-1.0076,-1.0081,-1.0077,-1.0077,-1.0077,-1.0087,-1.0088,-1.0088,-1.0088,0,-1.0268,-1.026,-1.0251,-1.0239,-1.0231,-1.0221,-1.0209,-1.0206,-1.0185,-1.0178,-1.0168,-1.016,-1.0144,-1.0132,-1.0117,-1.0107,-1.0094,-1.0092,-1.0092,-1.0096,-1.0102,-1.0098,-1.0074,-1.0091,-1.0091,-1.009,-1.009,-1.009,-1.0284,-1.0281,-1.0266,-1.0257,-1.0246,-1.0236,-1.0231,-1.0218,-1.0209,-1.0195,-1.0185,-1.0175,-1.016,-1.0139,-1.0129,-1.0121,-1.0115,-1.0115,-1.0115,-1.0115,-1.0117,-1.0105,-1.0118,-1.0118,-1.0118,-1.0118,-1.0118,0,-1.0302,-1.0292,-1.0283,-1.0268,-1.026,-1.025,-1.0237,-1.0231,-1.0222,-1.021,-1.02,-1.0187,-1.0176,-1.0159,-1.0147,-1.0143,-1.0137,-1.014,-1.014,-1.0137,-1.0123,-1.0124,-1.0145,-1.0145,-1.0145,-1.0145,-1.0145,-1.0145,-1.031,-1.0304,-1.0295,-1.0283,-1.0273,-1.0263,-1.0257,-1.0247,-1.0237,-1.0224,-1.0215,-1.0204,-1.019,-1.0176,-1.0165,-1.016,-1.0156,-1.0161,-1.0155,-1.0141,-1.0138,-1.0136,-1.0137,-1.0161,-1.0161,-1.017,-1.017,-1.017]}]]